Regional Weather Roundup
Issued by NWS

Home | Current Version | Previous Version | Graphics & Text | Print | Product List | Glossary On
Versions: 1 2 3 4 5 6 7 8 9 10 11 12 13 14 15 16 17 18 19 20 21 22 23 24 25 26 27 28 29 30 31 32 33 34 35 36 37 38 39 40 41 42 43 44 45 46 47 48 49 50
000
ASUS43 KBIS 060510
RWRND

NORTH DAKOTA REGIONAL WEATHER ROUNDUP
NATIONAL WEATHER SERVICE BISMARCK ND
1200 AM CDT MON JUL 06 2015

NOTE: "FAIR" INDICATES FEW OR NO CLOUDS BELOW 12,000 FEET WITH NO
SIGNIFICANT WEATHER AND/OR OBSTRUCTIONS TO VISIBILITY.


NDZ001>003-009>011-017-060600-
NORTHWEST NORTH DAKOTA

CITY           SKY/WX    TMP DP  RH WIND       PRES   REMARKS
WILLISTON      MOCLDY    62  52  69 N5        30.08R
MINOT          MOCLDY    60  53  77 NW9       30.00R
MINOT AFB      MOCLDY    61  60  99 NW8       30.00R
$$

NDZ018>021-031>035-040>046-060600-
SOUTHWEST NORTH DAKOTA

CITY           SKY/WX    TMP DP  RH WIND       PRES   REMARKS
BISMARCK       CLOUDY    68  58  70 NW10      29.99R HAZE
DICKINSON      CLOUDY    60  51  72 N7        30.05R
GARRISON         N/A     58  55  90 N8        30.01R
HETTINGER ARPT CLOUDY    61  57  87 NW6       30.06S FOG
$$

NDZ004>008-012>016-024-026-027-054-060600-
NORTHEAST NORTH DAKOTA

CITY           SKY/WX    TMP DP  RH WIND       PRES   REMARKS
GRAND FORKS    CLOUDY    63  60  90 NW3       29.89R FOG
GRND FRKS AFB  MOCLDY    63  60  90 NW5       29.91R FOG
DEVILS LAKE    MOCLDY    64  54  68 N8        29.94R
$$

NDZ022-023-025-028>030-036>039-047>053-060600-
SOUTHEAST NORTH DAKOTA

CITY           SKY/WX    TMP DP  RH WIND       PRES   REMARKS
FARGO          CLOUDY    69  62  78 N16G23    29.88R HAZE
JAMESTOWN      CLOUDY    66  58  75 N8        29.94R HAZE
$$



USA.gov is the U.S. government's official web portal to all federal, state and local government web resources and services.